contact:dominique.lefevre@mio.osupytheas.fr, maurice.libes@osupytheas.fr, didier.mallarino@osupytheas.fr
Project:EMSO http://www.emso-fr.org/EMSO-France
Depth: 2436.0 m
Title:EMSO Ligure Ouest : Data MII capteur OXYGEN
DateTime,Latitude,Longitude,Optode-Type,Optode_Serial,Oxygen,Saturation_Oxygen,Temperature
DateTime,Latitude,Longitude,Optode-Type,Optode_Serial,µmol.l-1,%,degC
2017-12-02T00:00:50,42.805,6.029,4330,1995,196.508,60.094,13.287
2017-12-02T00:03:50,42.805,6.029,4330,1995,196.493,60.089,13.287
2017-12-02T00:06:50,42.805,6.029,4330,1995,196.625,60.129,13.286
2017-12-02T00:09:50,42.805,6.029,4330,1995,196.886,60.209,13.287
2017-12-02T00:12:50,42.805,6.029,4330,1995,196.750,60.167,13.287
2017-12-02T00:15:50,42.805,6.029,4330,1995,196.648,60.136,13.287
2017-12-02T00:18:50,42.805,6.029,4330,1995,196.578,60.114,13.287
2017-12-02T00:21:50,42.805,6.029,4330,1995,196.405,60.062,13.287
2017-12-02T00:24:50,42.805,6.029,4330,1995,196.471,60.082,13.287
2017-12-02T00:27:50,42.805,6.029,4330,1995,196.423,60.067,13.287
2017-12-02T00:30:50,42.805,6.029,4330,1995,196.552,60.107,13.287
2017-12-02T00:33:50,42.805,6.029,4330,1995,196.384,60.055,13.287
2017-12-02T00:36:50,42.805,6.029,4330,1995,196.274,60.022,13.287
2017-12-02T00:39:50,42.805,6.029,4330,1995,196.504,60.092,13.287
2017-12-02T00:42:50,42.805,6.029,4330,1995,196.394,60.058,13.287
2017-12-02T00:45:50,42.805,6.029,4330,1995,196.324,60.039,13.288
2017-12-02T00:48:50,42.805,6.029,4330,1995,196.365,60.050,13.287
2017-12-02T00:51:50,42.805,6.029,4330,1995,196.288,60.025,13.286
2017-12-02T00:54:50,42.805,6.029,4330,1995,196.254,60.016,13.287
2017-12-02T00:57:50,42.805,6.029,4330,1995,196.158,59.987,13.287
2017-12-02T01:00:50,42.805,6.029,4330,1995,196.318,60.035,13.287
2017-12-02T01:03:50,42.805,6.029,4330,1995,196.367,60.050,13.287
2017-12-02T01:06:50,42.805,6.029,4330,1995,196.308,60.033,13.287
2017-12-02T01:09:50,42.805,6.029,4330,1995,196.289,60.027,13.287
2017-12-02T01:12:50,42.805,6.029,4330,1995,196.602,60.122,13.287
2017-12-02T01:15:50,42.805,6.029,4330,1995,196.401,60.061,13.287
2017-12-02T01:18:50,42.805,6.029,4330,1995,196.212,60.004,13.287
2017-12-02T01:21:50,42.805,6.029,4330,1995,196.062,59.957,13.287
2017-12-02T01:24:50,42.805,6.029,4330,1995,195.940,59.921,13.288
2017-12-02T01:27:50,42.805,6.029,4330,1995,195.929,59.917,13.287
2017-12-02T01:30:50,42.805,6.029,4330,1995,195.932,59.918,13.287
2017-12-02T01:33:50,42.805,6.029,4330,1995,195.830,59.887,13.288
2017-12-02T01:36:50,42.805,6.029,4330,1995,195.624,59.824,13.288
2017-12-02T01:39:50,42.805,6.029,4330,1995,195.516,59.791,13.288
2017-12-02T01:42:50,42.805,6.029,4330,1995,195.483,59.782,13.288
2017-12-02T01:45:50,42.805,6.029,4330,1995,195.479,59.780,13.288
2017-12-02T01:48:50,42.805,6.029,4330,1995,195.458,59.772,13.287
2017-12-02T01:51:50,42.805,6.029,4330,1995,195.568,59.806,13.287
2017-12-02T01:54:50,42.805,6.029,4330,1995,195.565,59.805,13.287
2017-12-02T01:57:50,42.805,6.029,4330,1995,195.775,59.870,13.287
2017-12-02T02:00:50,42.805,6.029,4330,1995,195.757,59.865,13.288
2017-12-02T02:03:50,42.805,6.029,4330,1995,195.880,59.902,13.288
2017-12-02T02:06:50,42.805,6.029,4330,1995,195.725,59.855,13.288
2017-12-02T02:09:50,42.805,6.029,4330,1995,195.523,59.794,13.288
2017-12-02T02:12:50,42.805,6.029,4330,1995,195.397,59.757,13.289
2017-12-02T02:15:50,42.805,6.029,4330,1995,195.224,59.702,13.288
2017-12-02T02:18:50,42.805,6.029,4330,1995,195.083,59.659,13.288
2017-12-02T02:21:50,42.805,6.029,4330,1995,195.264,59.715,13.288
2017-12-02T02:24:50,42.805,6.029,4330,1995,195.535,59.795,13.287
2017-12-02T02:27:50,42.805,6.029,4330,1995,195.842,59.890,13.287
2017-12-02T02:30:50,42.805,6.029,4330,1995,195.868,59.898,13.287
2017-12-02T02:33:50,42.805,6.029,4330,1995,195.778,59.872,13.288
2017-12-02T02:36:50,42.805,6.029,4330,1995,195.803,59.880,13.289
2017-12-02T02:39:50,42.805,6.029,4330,1995,195.666,59.838,13.288
2017-12-02T02:42:50,42.805,6.029,4330,1995,195.648,59.830,13.287
2017-12-02T02:45:50,42.805,6.029,4330,1995,195.949,59.922,13.287
2017-12-02T02:48:50,42.805,6.029,4330,1995,196.004,59.939,13.287
2017-12-02T02:51:50,42.805,6.029,4330,1995,196.069,59.960,13.287
2017-12-02T02:54:50,42.805,6.029,4330,1995,196.013,59.942,13.287
2017-12-02T02:57:50,42.805,6.029,4330,1995,195.896,59.906,13.287
2017-12-02T03:00:50,42.805,6.029,4330,1995,196.075,59.961,13.287
2017-12-02T03:03:50,42.805,6.029,4330,1995,196.168,59.989,13.287
2017-12-02T03:06:50,42.805,6.029,4330,1995,196.226,60.008,13.287
2017-12-02T03:09:50,42.805,6.029,4330,1995,196.113,59.972,13.287
2017-12-02T03:12:50,42.805,6.029,4330,1995,196.049,59.952,13.286
2017-12-02T03:15:50,42.805,6.029,4330,1995,196.257,60.016,13.287
2017-12-02T03:18:50,42.805,6.029,4330,1995,196.188,59.995,13.287
2017-12-02T03:21:50,42.805,6.029,4330,1995,195.968,59.928,13.286
2017-12-02T03:24:50,42.805,6.029,4330,1995,196.125,59.976,13.287
2017-12-02T03:27:50,42.805,6.029,4330,1995,196.266,60.019,13.287
2017-12-02T03:30:50,42.805,6.029,4330,1995,196.353,60.046,13.287
2017-12-02T03:33:50,42.805,6.029,4330,1995,196.262,60.018,13.286
2017-12-02T03:36:50,42.805,6.029,4330,1995,196.408,60.063,13.287
2017-12-02T03:39:50,42.805,6.029,4330,1995,196.350,60.045,13.287
2017-12-02T03:42:50,42.805,6.029,4330,1995,196.403,60.061,13.286
2017-12-02T03:45:50,42.805,6.029,4330,1995,196.447,60.074,13.286
2017-12-02T03:48:50,42.805,6.029,4330,1995,196.502,60.091,13.286
2017-12-02T03:51:50,42.805,6.029,4330,1995,196.616,60.125,13.286
2017-12-02T03:54:50,42.805,6.029,4330,1995,196.434,60.071,13.287
2017-12-02T03:57:50,42.805,6.029,4330,1995,196.436,60.071,13.286
2017-12-02T04:00:50,42.805,6.029,4330,1995,196.648,60.136,13.286
2017-12-02T04:03:50,42.805,6.029,4330,1995,196.694,60.149,13.286
2017-12-02T04:06:50,42.805,6.029,4330,1995,196.709,60.154,13.286
2017-12-02T04:09:50,42.805,6.029,4330,1995,196.767,60.172,13.286
2017-12-02T04:12:50,42.805,6.029,4330,1995,196.881,60.206,13.286
2017-12-02T04:15:50,42.805,6.029,4330,1995,196.748,60.167,13.287
2017-12-02T04:18:50,42.805,6.029,4330,1995,196.809,60.185,13.286
2017-12-02T04:21:50,42.805,6.029,4330,1995,196.898,60.212,13.286
2017-12-02T04:24:50,42.805,6.029,4330,1995,196.984,60.238,13.286
2017-12-02T04:27:50,42.805,6.029,4330,1995,197.081,60.267,13.286
2017-12-02T04:30:50,42.805,6.029,4330,1995,197.045,60.256,13.286
2017-12-02T04:33:50,42.805,6.029,4330,1995,197.142,60.286,13.286
2017-12-02T04:36:50,42.805,6.029,4330,1995,197.244,60.319,13.287
2017-12-02T04:39:50,42.805,6.029,4330,1995,197.243,60.317,13.286
2017-12-02T04:42:50,42.805,6.029,4330,1995,197.253,60.320,13.286
2017-12-02T04:45:50,42.805,6.029,4330,1995,197.232,60.315,13.287
2017-12-02T04:48:50,42.805,6.029,4330,1995,197.328,60.343,13.286
2017-12-02T04:51:50,42.805,6.029,4330,1995,197.393,60.363,13.286
2017-12-02T04:54:50,42.805,6.029,4330,1995,197.405,60.367,13.286
2017-12-02T04:57:50,42.805,6.029,4330,1995,197.373,60.358,13.287
2017-12-02T05:00:50,42.805,6.029,4330,1995,197.360,60.353,13.286
2017-12-02T05:03:50,42.805,6.029,4330,1995,197.354,60.351,13.286
2017-12-02T05:06:50,42.805,6.029,4330,1995,197.413,60.369,13.286
2017-12-02T05:09:50,42.805,6.029,4330,1995,197.344,60.348,13.286
2017-12-02T05:12:50,42.805,6.029,4330,1995,197.248,60.319,13.286
2017-12-02T05:15:50,42.805,6.029,4330,1995,197.353,60.350,13.286
2017-12-02T05:18:50,42.805,6.029,4330,1995,197.343,60.348,13.286
2017-12-02T05:21:50,42.805,6.029,4330,1995,197.431,60.374,13.286
2017-12-02T05:24:50,42.805,6.029,4330,1995,197.416,60.370,13.286
2017-12-02T05:27:50,42.805,6.029,4330,1995,197.425,60.373,13.286
2017-12-02T05:30:50,42.805,6.029,4330,1995,197.468,60.386,13.286
2017-12-02T05:33:50,42.805,6.029,4330,1995,197.445,60.379,13.286
2017-12-02T05:36:50,42.805,6.029,4330,1995,197.466,60.385,13.286
2017-12-02T05:39:50,42.805,6.029,4330,1995,197.471,60.387,13.286
2017-12-02T05:42:50,42.805,6.029,4330,1995,197.502,60.396,13.286
2017-12-02T05:45:50,42.805,6.029,4330,1995,197.444,60.379,13.286
2017-12-02T05:48:50,42.805,6.029,4330,1995,197.534,60.406,13.286
2017-12-02T05:51:50,42.805,6.029,4330,1995,197.460,60.383,13.286
2017-12-02T05:54:50,42.805,6.029,4330,1995,197.468,60.386,13.286
2017-12-02T05:57:50,42.805,6.029,4330,1995,197.482,60.390,13.286
2017-12-02T06:00:50,42.805,6.029,4330,1995,197.565,60.416,13.286
2017-12-02T06:03:50,42.805,6.029,4330,1995,197.517,60.401,13.286
2017-12-02T06:06:50,42.805,6.029,4330,1995,197.600,60.426,13.286
2017-12-02T06:09:50,42.805,6.029,4330,1995,197.655,60.443,13.286
2017-12-02T06:12:50,42.805,6.029,4330,1995,197.709,60.460,13.286
2017-12-02T06:15:50,42.805,6.029,4330,1995,197.716,60.462,13.286
2017-12-02T06:18:50,42.805,6.029,4330,1995,197.655,60.444,13.287
2017-12-02T06:21:50,42.805,6.029,4330,1995,197.689,60.453,13.286
2017-12-02T06:24:50,42.805,6.029,4330,1995,197.745,60.470,13.286
2017-12-02T06:27:50,42.805,6.029,4330,1995,197.747,60.471,13.286
2017-12-02T06:30:50,42.805,6.029,4330,1995,197.759,60.475,13.286
2017-12-02T06:33:50,42.805,6.029,4330,1995,197.799,60.487,13.286
2017-12-02T06:36:50,42.805,6.029,4330,1995,197.758,60.474,13.286
2017-12-02T06:39:50,42.805,6.029,4330,1995,197.806,60.489,13.286
2017-12-02T06:42:50,42.805,6.029,4330,1995,197.846,60.501,13.286
2017-12-02T06:45:50,42.805,6.029,4330,1995,197.848,60.502,13.286
2017-12-02T06:48:50,42.805,6.029,4330,1995,197.833,60.498,13.287
2017-12-02T06:51:50,42.805,6.029,4330,1995,197.736,60.468,13.286
2017-12-02T06:54:50,42.805,6.029,4330,1995,197.729,60.466,13.286
2017-12-02T06:57:50,42.805,6.029,4330,1995,197.749,60.472,13.286
2017-12-02T07:00:50,42.805,6.029,4330,1995,197.797,60.486,13.286
2017-12-02T07:03:50,42.805,6.029,4330,1995,197.838,60.499,13.286
2017-12-02T07:06:50,42.805,6.029,4330,1995,197.818,60.493,13.286
2017-12-02T07:09:50,42.805,6.029,4330,1995,197.862,60.506,13.286
2017-12-02T07:12:50,42.805,6.029,4330,1995,197.913,60.522,13.286
2017-12-02T07:15:50,42.805,6.029,4330,1995,197.876,60.510,13.286
2017-12-02T07:18:50,42.805,6.029,4330,1995,197.818,60.493,13.286
2017-12-02T07:21:50,42.805,6.029,4330,1995,197.823,60.494,13.286
2017-12-02T07:24:50,42.805,6.029,4330,1995,197.858,60.507,13.287
2017-12-02T07:27:50,42.805,6.029,4330,1995,197.820,60.493,13.286
2017-12-02T07:30:50,42.805,6.029,4330,1995,197.891,60.515,13.286
2017-12-02T07:33:50,42.805,6.029,4330,1995,197.836,60.498,13.286
2017-12-02T07:36:50,42.805,6.029,4330,1995,197.873,60.510,13.286
2017-12-02T07:39:50,42.805,6.029,4330,1995,197.867,60.507,13.286
2017-12-02T07:42:50,42.805,6.029,4330,1995,197.867,60.508,13.286
2017-12-02T07:45:50,42.805,6.029,4330,1995,197.893,60.515,13.286
2017-12-02T07:48:50,42.805,6.029,4330,1995,197.814,60.491,13.286
2017-12-02T07:51:50,42.805,6.029,4330,1995,197.845,60.501,13.286
2017-12-02T07:54:50,42.805,6.029,4330,1995,197.879,60.511,13.286
2017-12-02T07:57:50,42.805,6.029,4330,1995,197.822,60.494,13.286
2017-12-02T08:00:50,42.805,6.029,4330,1995,197.806,60.489,13.286
2017-12-02T08:03:50,42.805,6.029,4330,1995,197.803,60.488,13.286
2017-12-02T08:06:50,42.805,6.029,4330,1995,197.882,60.512,13.286
2017-12-02T08:09:50,42.805,6.029,4330,1995,197.802,60.487,13.285
2017-12-02T08:12:50,42.805,6.029,4330,1995,197.862,60.506,13.286
2017-12-02T08:15:50,42.805,6.029,4330,1995,197.884,60.512,13.286
2017-12-02T08:18:50,42.805,6.029,4330,1995,197.832,60.497,13.286
2017-12-02T08:21:50,42.805,6.029,4330,1995,197.846,60.501,13.286
2017-12-02T08:24:50,42.805,6.029,4330,1995,197.829,60.496,13.286
2017-12-02T08:27:50,42.805,6.029,4330,1995,197.845,60.500,13.285
2017-12-02T08:30:50,42.805,6.029,4330,1995,197.878,60.511,13.286
2017-12-02T08:33:50,42.805,6.029,4330,1995,197.841,60.499,13.286
2017-12-02T08:36:50,42.805,6.029,4330,1995,197.853,60.503,13.286
2017-12-02T08:39:50,42.805,6.029,4330,1995,197.794,60.485,13.286
2017-12-02T08:42:50,42.805,6.029,4330,1995,197.834,60.497,13.285
2017-12-02T08:45:50,42.805,6.029,4330,1995,197.811,60.490,13.285
2017-12-02T08:48:50,42.805,6.029,4330,1995,197.837,60.499,13.286
2017-12-02T08:51:50,42.805,6.029,4330,1995,197.879,60.511,13.286
2017-12-02T08:54:50,42.805,6.029,4330,1995,197.913,60.521,13.285
2017-12-02T08:57:50,42.805,6.029,4330,1995,197.833,60.497,13.285
2017-12-02T09:00:50,42.805,6.029,4330,1995,197.873,60.509,13.285
2017-12-02T09:03:50,42.805,6.029,4330,1995,197.869,60.507,13.285
2017-12-02T09:06:50,42.805,6.029,4330,1995,197.889,60.513,13.285
2017-12-02T09:09:50,42.805,6.029,4330,1995,197.905,60.519,13.285
2017-12-02T09:12:50,42.805,6.029,4330,1995,197.906,60.519,13.285
2017-12-02T09:15:50,42.805,6.029,4330,1995,197.911,60.521,13.285
2017-12-02T09:18:50,42.805,6.029,4330,1995,197.881,60.512,13.286
2017-12-02T09:21:50,42.805,6.029,4330,1995,197.861,60.505,13.286
2017-12-02T09:24:50,42.805,6.029,4330,1995,197.825,60.494,13.285
2017-12-02T09:27:50,42.805,6.029,4330,1995,197.898,60.516,13.285
2017-12-02T09:30:50,42.805,6.029,4330,1995,197.857,60.504,13.285
2017-12-02T09:33:50,42.805,6.029,4330,1995,197.873,60.509,13.286
2017-12-02T09:36:50,42.805,6.029,4330,1995,197.859,60.505,13.285
2017-12-02T09:39:50,42.805,6.029,4330,1995,197.865,60.506,13.285
2017-12-02T09:42:50,42.805,6.029,4330,1995,197.819,60.492,13.286
2017-12-02T09:45:50,42.805,6.029,4330,1995,197.863,60.506,13.285
2017-12-02T09:48:50,42.805,6.029,4330,1995,197.885,60.513,13.285
2017-12-02T09:51:50,42.805,6.029,4330,1995,197.900,60.517,13.285
2017-12-02T09:54:50,42.805,6.029,4330,1995,197.903,60.518,13.285
2017-12-02T09:57:50,42.805,6.029,4330,1995,197.893,60.515,13.285
2017-12-02T10:00:50,42.805,6.029,4330,1995,197.864,60.506,13.286
2017-12-02T10:03:50,42.805,6.029,4330,1995,197.943,60.530,13.285
2017-12-02T10:06:50,42.805,6.029,4330,1995,197.903,60.518,13.285
2017-12-02T10:09:50,42.805,6.029,4330,1995,197.925,60.524,13.285
2017-12-02T10:12:50,42.805,6.029,4330,1995,197.954,60.534,13.285
2017-12-02T10:15:50,42.805,6.029,4330,1995,198.043,60.561,13.285
2017-12-02T10:18:50,42.805,6.029,4330,1995,198.012,60.551,13.285
2017-12-02T10:21:50,42.805,6.029,4330,1995,198.044,60.561,13.285
2017-12-02T10:24:50,42.805,6.029,4330,1995,198.049,60.562,13.285
2017-12-02T10:27:50,42.805,6.029,4330,1995,198.075,60.571,13.286
2017-12-02T10:30:50,42.805,6.029,4330,1995,198.087,60.574,13.285
2017-12-02T10:33:50,42.805,6.029,4330,1995,198.119,60.584,13.285
2017-12-02T10:36:50,42.805,6.029,4330,1995,198.129,60.587,13.285
2017-12-02T10:39:50,42.805,6.029,4330,1995,198.200,60.609,13.285
2017-12-02T10:42:50,42.805,6.029,4330,1995,198.249,60.623,13.285
2017-12-02T10:45:50,42.805,6.029,4330,1995,198.247,60.623,13.285
2017-12-02T10:48:50,42.805,6.029,4330,1995,198.234,60.619,13.285
2017-12-02T10:51:50,42.805,6.029,4330,1995,198.250,60.624,13.285
2017-12-02T10:54:50,42.805,6.029,4330,1995,198.242,60.621,13.285
2017-12-02T10:57:50,42.805,6.029,4330,1995,198.275,60.631,13.285
2017-12-02T11:00:50,42.805,6.029,4330,1995,198.298,60.638,13.285
2017-12-02T11:03:50,42.805,6.029,4330,1995,198.259,60.627,13.285
2017-12-02T11:06:50,42.805,6.029,4330,1995,198.230,60.619,13.286
2017-12-02T11:09:50,42.805,6.029,4330,1995,198.208,60.611,13.285
2017-12-02T11:12:50,42.805,6.029,4330,1995,198.243,60.622,13.285
2017-12-02T11:15:50,42.805,6.029,4330,1995,198.203,60.609,13.285
2017-12-02T11:18:50,42.805,6.029,4330,1995,198.240,60.621,13.285
2017-12-02T11:21:50,42.805,6.029,4330,1995,198.172,60.601,13.286
2017-12-02T11:24:50,42.805,6.029,4330,1995,198.180,60.602,13.285
2017-12-02T11:27:50,42.805,6.029,4330,1995,198.189,60.605,13.285
2017-12-02T11:30:50,42.805,6.029,4330,1995,198.137,60.589,13.285
2017-12-02T11:33:50,42.805,6.029,4330,1995,198.198,60.609,13.286
2017-12-02T11:36:50,42.805,6.029,4330,1995,198.189,60.605,13.285
2017-12-02T11:39:50,42.805,6.029,4330,1995,198.205,60.610,13.285
2017-12-02T11:42:50,42.805,6.029,4330,1995,198.219,60.614,13.285
2017-12-02T11:45:50,42.805,6.029,4330,1995,198.211,60.611,13.285
2017-12-02T11:48:50,42.805,6.029,4330,1995,198.211,60.612,13.285
2017-12-02T11:51:50,42.805,6.029,4330,1995,198.221,60.615,13.285
2017-12-02T11:54:50,42.805,6.029,4330,1995,198.206,60.611,13.285
2017-12-02T11:57:50,42.805,6.029,4330,1995,198.207,60.610,13.285
2017-12-02T12:00:50,42.805,6.029,4330,1995,198.248,60.623,13.285
2017-12-02T12:03:50,42.805,6.029,4330,1995,198.196,60.607,13.285
2017-12-02T12:06:50,42.805,6.029,4330,1995,198.225,60.616,13.285
2017-12-02T12:09:50,42.805,6.029,4330,1995,198.250,60.624,13.285
2017-12-02T12:12:50,42.805,6.029,4330,1995,198.235,60.619,13.285
2017-12-02T12:15:50,42.805,6.029,4330,1995,198.296,60.638,13.285
2017-12-02T12:18:50,42.805,6.029,4330,1995,198.266,60.629,13.286
2017-12-02T12:21:50,42.805,6.029,4330,1995,198.278,60.633,13.286
2017-12-02T12:24:50,42.805,6.029,4330,1995,198.288,60.636,13.285
2017-12-02T12:27:50,42.805,6.029,4330,1995,198.319,60.645,13.285
2017-12-02T12:30:50,42.805,6.029,4330,1995,198.289,60.636,13.286
2017-12-02T12:33:50,42.805,6.029,4330,1995,198.305,60.641,13.285
2017-12-02T12:36:50,42.805,6.029,4330,1995,198.363,60.659,13.285
2017-12-02T12:39:50,42.805,6.029,4330,1995,198.327,60.648,13.285
2017-12-02T12:42:50,42.805,6.029,4330,1995,198.415,60.674,13.285
2017-12-02T12:45:50,42.805,6.029,4330,1995,198.305,60.641,13.285
2017-12-02T12:48:50,42.805,6.029,4330,1995,198.336,60.651,13.286
2017-12-02T12:51:50,42.805,6.029,4330,1995,198.329,60.648,13.285
2017-12-02T12:54:50,42.805,6.029,4330,1995,198.362,60.659,13.286
2017-12-02T12:57:50,42.805,6.029,4330,1995,198.306,60.641,13.286
2017-12-02T13:00:50,42.805,6.029,4330,1995,198.331,60.649,13.286
2017-12-02T13:03:50,42.805,6.029,4330,1995,198.319,60.645,13.285
2017-12-02T13:06:50,42.805,6.029,4330,1995,198.348,60.654,13.285
2017-12-02T13:09:50,42.805,6.029,4330,1995,198.376,60.663,13.285
2017-12-02T13:12:50,42.805,6.029,4330,1995,198.371,60.661,13.285
2017-12-02T13:15:50,42.805,6.029,4330,1995,198.342,60.653,13.286
2017-12-02T13:18:50,42.805,6.029,4330,1995,198.369,60.660,13.285
2017-12-02T13:21:50,42.805,6.029,4330,1995,198.347,60.654,13.286
2017-12-02T13:24:50,42.805,6.029,4330,1995,198.406,60.672,13.286
2017-12-02T13:27:50,42.805,6.029,4330,1995,198.351,60.655,13.285
2017-12-02T13:30:50,42.805,6.029,4330,1995,198.343,60.653,13.286
2017-12-02T13:33:50,42.805,6.029,4330,1995,198.374,60.662,13.285
2017-12-02T13:36:50,42.805,6.029,4330,1995,198.362,60.658,13.285
2017-12-02T13:39:50,42.805,6.029,4330,1995,198.405,60.672,13.286
2017-12-02T13:42:50,42.805,6.029,4330,1995,198.371,60.661,13.286
2017-12-02T13:45:50,42.805,6.029,4330,1995,198.342,60.653,13.286
2017-12-02T13:48:50,42.805,6.029,4330,1995,198.363,60.660,13.286
2017-12-02T13:51:50,42.805,6.029,4330,1995,198.410,60.673,13.285
2017-12-02T13:54:50,42.805,6.029,4330,1995,198.394,60.668,13.285
2017-12-02T13:57:50,42.805,6.029,4330,1995,198.414,60.675,13.286
2017-12-02T14:00:50,42.805,6.029,4330,1995,198.383,60.665,13.286
2017-12-02T14:03:50,42.805,6.029,4330,1995,198.351,60.655,13.285
2017-12-02T14:06:50,42.805,6.029,4330,1995,198.356,60.657,13.286
2017-12-02T14:09:50,42.805,6.029,4330,1995,198.380,60.664,13.286
2017-12-02T14:12:50,42.805,6.029,4330,1995,198.346,60.654,13.286
2017-12-02T14:15:50,42.805,6.029,4330,1995,198.356,60.656,13.285
2017-12-02T14:18:50,42.805,6.029,4330,1995,198.380,60.664,13.285
2017-12-02T14:21:50,42.805,6.029,4330,1995,198.350,60.655,13.285
2017-12-02T14:24:50,42.805,6.029,4330,1995,198.390,60.667,13.285
2017-12-02T14:27:50,42.805,6.029,4330,1995,198.374,60.662,13.285
2017-12-02T14:30:49,42.805,6.029,4330,1995,198.385,60.666,13.285
2017-12-02T14:33:49,42.805,6.029,4330,1995,198.382,60.664,13.285
2017-12-02T14:36:49,42.805,6.029,4330,1995,198.423,60.677,13.285
2017-12-02T14:39:49,42.805,6.029,4330,1995,198.454,60.686,13.285
2017-12-02T14:42:49,42.805,6.029,4330,1995,198.453,60.686,13.285
2017-12-02T14:45:49,42.805,6.029,4330,1995,198.441,60.683,13.285
2017-12-02T14:48:49,42.805,6.029,4330,1995,198.431,60.680,13.285
2017-12-02T14:51:49,42.805,6.029,4330,1995,198.416,60.675,13.285
2017-12-02T14:54:49,42.805,6.029,4330,1995,198.459,60.689,13.286
2017-12-02T14:57:49,42.805,6.029,4330,1995,198.460,60.689,13.286
2017-12-02T15:00:49,42.805,6.029,4330,1995,198.382,60.665,13.286
2017-12-02T15:03:49,42.805,6.029,4330,1995,198.383,60.665,13.285
2017-12-02T15:06:49,42.805,6.029,4330,1995,198.391,60.667,13.285
2017-12-02T15:09:49,42.805,6.029,4330,1995,198.453,60.686,13.285
2017-12-02T15:12:49,42.805,6.029,4330,1995,198.473,60.693,13.286
2017-12-02T15:15:49,42.805,6.029,4330,1995,198.481,60.695,13.286
2017-12-02T15:18:49,42.805,6.029,4330,1995,198.459,60.688,13.286
2017-12-02T15:21:49,42.805,6.029,4330,1995,198.524,60.709,13.286
2017-12-02T15:24:49,42.805,6.029,4330,1995,198.491,60.698,13.286
2017-12-02T15:27:49,42.805,6.029,4330,1995,198.523,60.708,13.286
2017-12-02T15:30:49,42.805,6.029,4330,1995,198.498,60.700,13.286
2017-12-02T15:33:49,42.805,6.029,4330,1995,198.521,60.707,13.285
2017-12-02T15:36:49,42.805,6.029,4330,1995,198.515,60.706,13.286
2017-12-02T15:39:49,42.805,6.029,4330,1995,198.464,60.690,13.286
2017-12-02T15:42:49,42.805,6.029,4330,1995,198.485,60.696,13.285
2017-12-02T15:45:49,42.805,6.029,4330,1995,198.439,60.682,13.285
2017-12-02T15:48:49,42.805,6.029,4330,1995,198.448,60.685,13.286
2017-12-02T15:51:49,42.805,6.029,4330,1995,198.462,60.689,13.286
2017-12-02T15:54:49,42.805,6.029,4330,1995,198.452,60.686,13.286
2017-12-02T15:57:49,42.805,6.029,4330,1995,198.502,60.701,13.285
2017-12-02T16:00:49,42.805,6.029,4330,1995,198.482,60.695,13.286
2017-12-02T16:03:49,42.805,6.029,4330,1995,198.476,60.693,13.285
2017-12-02T16:06:49,42.805,6.029,4330,1995,198.458,60.687,13.285
2017-12-02T16:09:49,42.805,6.029,4330,1995,198.442,60.684,13.286
2017-12-02T16:12:49,42.805,6.029,4330,1995,198.450,60.685,13.285
2017-12-02T16:15:49,42.805,6.029,4330,1995,198.473,60.692,13.285
2017-12-02T16:18:49,42.805,6.029,4330,1995,198.488,60.697,13.286
2017-12-02T16:21:49,42.805,6.029,4330,1995,198.440,60.683,13.286
2017-12-02T16:24:49,42.805,6.029,4330,1995,198.416,60.675,13.285
2017-12-02T16:27:49,42.805,6.029,4330,1995,198.472,60.692,13.285
2017-12-02T16:30:49,42.805,6.029,4330,1995,198.430,60.679,13.285
2017-12-02T16:33:49,42.805,6.029,4330,1995,198.475,60.693,13.285
2017-12-02T16:36:49,42.805,6.029,4330,1995,198.466,60.690,13.286
2017-12-02T16:39:49,42.805,6.029,4330,1995,198.453,60.686,13.285
2017-12-02T16:42:49,42.805,6.029,4330,1995,198.441,60.682,13.285
2017-12-02T16:45:49,42.805,6.029,4330,1995,198.461,60.689,13.285
2017-12-02T16:48:49,42.805,6.029,4330,1995,198.442,60.683,13.285
2017-12-02T16:51:49,42.805,6.029,4330,1995,198.405,60.671,13.285
2017-12-02T16:54:49,42.805,6.029,4330,1995,198.423,60.677,13.285
2017-12-02T16:57:49,42.805,6.029,4330,1995,198.416,60.675,13.285
2017-12-02T17:00:49,42.805,6.029,4330,1995,198.431,60.680,13.286
2017-12-02T17:03:49,42.805,6.029,4330,1995,198.463,60.690,13.286
2017-12-02T17:06:49,42.805,6.029,4330,1995,198.476,60.693,13.286
2017-12-02T17:09:49,42.805,6.029,4330,1995,198.395,60.668,13.285
2017-12-02T17:12:49,42.805,6.029,4330,1995,198.407,60.672,13.285
2017-12-02T17:15:49,42.805,6.029,4330,1995,198.349,60.655,13.286
2017-12-02T17:18:49,42.805,6.029,4330,1995,198.362,60.658,13.285
2017-12-02T17:21:49,42.805,6.029,4330,1995,198.350,60.654,13.285
2017-12-02T17:24:49,42.805,6.029,4330,1995,198.372,60.662,13.286
2017-12-02T17:27:49,42.805,6.029,4330,1995,198.348,60.654,13.286
2017-12-02T17:30:49,42.805,6.029,4330,1995,198.352,60.655,13.285
2017-12-02T17:33:49,42.805,6.029,4330,1995,198.343,60.652,13.285
2017-12-02T17:36:49,42.805,6.029,4330,1995,198.325,60.647,13.286
2017-12-02T17:39:49,42.805,6.029,4330,1995,198.348,60.654,13.286
2017-12-02T17:42:49,42.805,6.029,4330,1995,198.399,60.670,13.286
2017-12-02T17:45:49,42.805,6.029,4330,1995,198.345,60.653,13.285
2017-12-02T17:48:49,42.805,6.029,4330,1995,198.369,60.661,13.285
2017-12-02T17:51:49,42.805,6.029,4330,1995,198.381,60.665,13.286
2017-12-02T17:54:49,42.805,6.029,4330,1995,198.314,60.644,13.285
2017-12-02T17:57:49,42.805,6.029,4330,1995,198.288,60.636,13.286
2017-12-02T18:00:49,42.805,6.029,4330,1995,198.350,60.655,13.285
2017-12-02T18:03:49,42.805,6.029,4330,1995,198.374,60.662,13.286
2017-12-02T18:06:49,42.805,6.029,4330,1995,198.308,60.642,13.285